PAY3236 LPPS-LDRI

Flight info

Callsign PAY3236
Flight time N/A
Altitude 38000
Route DEGUN DCT OGDOR/N0452F380 DCT SUBAL DCT SONAP DCT MINTA N747 YES M985 BCN N870 DIBER UN870 SOSUR DCT NOSTA DCT RIPDU DCT ROTAR
Aircraft A20N/M-SDE2E3FGHIRWXYZ/LB1

Departure

Time 2026-04-24 15:22
Airport Porto Santo Airport (LPPS)

Arrival

Time N/A
Airport Rijeka Airport (LDRI)
Time Latitude Longitude Altitude Speed Heading
2026-04-24 15:03 33.07131 -16.34639 272 ft 0 kts 222°
2026-04-24 15:18 33.07130 -16.34641 272 ft 1 kts 223°
2026-04-24 15:18 33.07114 -16.34659 272 ft 5 kts 227°
2026-04-24 15:18 33.07068 -16.34705 272 ft 11 kts 211°
2026-04-24 15:18 33.06986 -16.34768 272 ft 15 kts 248°
2026-04-24 15:19 33.06967 -16.34836 278 ft 2 kts 255°
2026-04-24 15:19 33.06965 -16.34845 279 ft 0 kts 256°
2026-04-24 15:19 33.06958 -16.34883 282 ft 9 kts 259°
2026-04-24 15:19 33.06911 -16.34965 283 ft 17 kts 203°
2026-04-24 15:20 33.06721 -16.34977 276 ft 35 kts 179°
2026-04-24 15:20 33.06467 -16.34963 267 ft 37 kts 174°
2026-04-24 15:20 33.06198 -16.34941 256 ft 39 kts 166°
2026-04-24 15:20 33.06031 -16.34849 248 ft 14 kts 202°
2026-04-24 15:21 33.06009 -16.34937 248 ft 7 kts 317°
2026-04-24 15:21 33.06028 -16.34944 249 ft 0 kts 359°
2026-04-24 15:21 33.06090 -16.34946 252 ft 37 kts 358°
2026-04-24 15:21 33.06603 -16.34971 272 ft 107 kts 359°
2026-04-24 15:22 33.07567 -16.35012 329 ft 162 kts 359°
2026-04-24 15:22 33.08667 -16.35059 1001 ft 160 kts 359°
2026-04-24 15:22 33.09786 -16.35085 1670 ft 162 kts
2026-04-24 15:23 33.11429 -16.33464 2524 ft 182 kts 70°
2026-04-24 15:23 33.12264 -16.30286 3254 ft 221 kts 71°
2026-04-24 15:23 33.12776 -16.28470 3664 ft 242 kts 70°